This is the latest recevied weather packets stored in our database for station/object PY1AU-13. If no packets are shown the sender has not sent any weather packets the latest 10 day(s).
| Time | Temp. | Humidity | Pressure | Rain* | Wind** | Luminosity | Snow |
|---|---|---|---|---|---|---|---|
| 1778268531 | 30° C | 62% | 1011.4 hPa | - | - | - | - |
| 1778268231 | 30° C | 61% | 1011.3 hPa | - | - | - | - |
| 1778267931 | 30° C | 59% | 1011.2 hPa | - | - | - | - |
| 1778267631 | 30° C | 58% | 1011.2 hPa | - | - | - | - |
| 1778267331 | 30° C | 58% | 1011.3 hPa | - | - | - | - |
| 1778267031 | 29.44° C | 58% | 1011.2 hPa | - | - | - | - |
| 1778266731 | 29.44° C | 59% | 1011.2 hPa | - | - | - | - |
| 1778266431 | 29.44° C | 62% | 1011.1 hPa | - | - | - | - |
| 1778266131 | 29.44° C | 61% | 1011.1 hPa | - | - | - | - |
| 1778265831 | 29.44° C | 62% | 1011 hPa | - | - | - | - |
| 1778265531 | 29.44° C | 61% | 1011.1 hPa | - | - | - | - |
| 1778265231 | 29.44° C | 59% | 1011 hPa | - | - | - | - |
| 1778264931 | 29.44° C | 62% | 1011.1 hPa | - | - | - | - |
| 1778264630 | 29.44° C | 58% | 1011.1 hPa | - | - | - | - |
| 1778264331 | 30° C | 56% | 1011.2 hPa | - | - | - | - |
| 1778264031 | 30° C | 56% | 1011.2 hPa | - | - | - | - |
| 1778263731 | 30° C | 55% | 1011.2 hPa | - | - | - | - |
| 1778263430 | 30° C | 55% | 1011.1 hPa | - | - | - | - |
| 1778263131 | 30° C | 55% | 1011.1 hPa | - | - | - | - |
| 1778256830 | 30.56° C | 53% | 1012.1 hPa | - | - | - | - |
| 1778256530 | 30.56° C | 52% | 1012.3 hPa | - | - | - | - |
| 1778256231 | 30.56° C | 52% | 1012.3 hPa | - | - | - | - |
| 1778255931 | 30.56° C | 54% | 1012.4 hPa | - | - | - | - |
| 1778255630 | 30.56° C | 55% | 1012.5 hPa | - | - | - | - |
| 1778255331 | 30.56° C | 54% | 1012.6 hPa | - | - | - | - |
* Rain since midnight (hover to see other rain measurements)
** Current wind speed in m/s (hover to see current wind gust speed)